Powrót do katalogu

STARLINK-32812

AktywnyŁącznośćVLEO
NORAD 63038·PAYLOAD·🇺🇸 United States

Wystrzelony Feb 18, 2025 z Cape Canaveral Space Force Station

Loading…

Następne Przeloty (najbliższe 24 godziny)

TLE

ŚwieżeSource: CelesTrak SupGP

Epoka: Sep 14, 2026, 23:00 UTC

1 63038C 25034K   26257.95881944  .00003251  00000+0  10456-3 0  2570
2 63038  53.1578  98.7335 0001279  87.5126  83.0877 15.31691919    13

Śledź STARLINK-32812 w czasie rzeczywistym z AllMySat

Download on the App Store